FALCON 9 DEB (47608 NORAD) Tracking and Keplerian Element Data
This shows tracking and keplerian element data for the satellite.
Feedback or suggestion? Click here.
Element | Value |
Catalog | 47608 |
Name | FALCON 9 DEB |
Epoch Orbit | 463 |
Epoch Day | 63.99704677 |
Epoch Year | 2021 |
RAAN | 336.0466 |
Inclination | 53.0412 |
Eccentricity | 0.000873 |
Argument of Perigee | 294.0327 |
Mean Anonmoly | 65.9804 |
Mean Motion | 16.37623172 |
Decay Rate | 0.04542907 |
L1 | 1 47608U 21009BN 21063.99704677 .04542907 12321-4 43231-3 0 9998 |
L2 | 2 47608 53.0412 336.0466 0008730 294.0327 65.9804 16.37623172 4638 |
Live tracking and technical data element details for FALCON 9 DEB (NORAD 47608). FALCON 9 DEB can be tracked NOW for your location showing map with azimuth and elevation plus other details from your city location.
Track the satellite on the map from your city or location and see movement details for azimuth, elevation, latitude, longitude, range, height, and movement on the map or in text.
IsCatalogInMostPopularTable: catalog: 47608, numindb: 23
Update: records affected: 1
GetName: 47608 FALCON 9 DEB
Hit Count: updated at: Fri, 16 Apr 2021 11:28:53 GMT